^^
Datos históricos de la estación: Murcia-Puente Tocinos
 
Diario Informe para Septiembre 17, 2019 Unidades:  Métrico    Inglés   Ambas
Diario Semanal Mensual Anual Configurable
  Actual: Máximo: Mínimo: Media:
Temperatura: 26.1 °C 26.1 °C 21.4 °C 23.1 °C
Punto de rocio: 21.6 °C 21.6 °C 20.1 °C 20.8 °C
Humedad: 76% 93% 71% 87%
Velocidad viento: 4.8km/h 14.5km/h 0.0km/h 4.7km/h
Racha viento: 12.9km/h 32.2km/h - -
VientoNNE - - SSE
Presión: 1013.1 hPa 1016.3 hPa 1012.5 hPa -
Precipitación: 0.0 mm      
Historical Graphs
 
 
Tabla de datos para Septiembre 17, 2019
Hora Temperatura Punto de rocio Presión Viento Velocidad viento Racha viento Humedad Intensidad lluvia(por hora) Nubes
00:00 23.3 °C 21.2 °C 1016.1 hPa NE 4.8 km/h 8.0 km/h 88% 0.0 mm
00:05 23.2 °C 21.3 °C 1016.1 hPa NE 4.8 km/h 9.7 km/h 89% 0.0 mm
00:10 23.2 °C 21.3 °C 1016.2 hPa NE 4.8 km/h 8.0 km/h 89% 0.0 mm
00:15 23.2 °C 21.3 °C 1016.2 hPa NE 5.0 km/h 5.6 km/h 89% 0.0 mm CLR
00:20 23.1 °C 21.4 °C 1016.2 hPa NE 3.2 km/h 8.0 km/h 90% 0.0 mm
00:25 23.1 °C 21.4 °C 1016.3 hPa NNE 3.2 km/h 4.8 km/h 90% 0.0 mm
00:30 23.1 °C 21.4 °C 1016.3 hPa North 3.2 km/h 4.8 km/h 90% 0.0 mm
00:35 23.1 °C 21.4 °C 1016.3 hPa NNE 3.2 km/h 4.8 km/h 90% 0.0 mm
00:40 23.1 °C 21.4 °C 1016.3 hPa NNE 2.9 km/h 5.6 km/h 90% 0.0 mm CLR
00:45 23.1 °C 21.6 °C 1016.3 hPa NNE 2.9 km/h 7.4 km/h 91% 0.0 mm CLR
00:50 23.0 °C 21.4 °C 1016.2 hPa NNE 3.2 km/h 8.0 km/h 91% 0.0 mm
00:55 22.9 °C 21.3 °C 1016.2 hPa NE 3.2 km/h 9.7 km/h 91% 0.0 mm
01:00 22.8 °C 21.3 °C 1016.2 hPa NE 4.8 km/h 8.0 km/h 91% 0.0 mm
01:05 22.8 °C 21.3 °C 1016.1 hPa NE 4.8 km/h 6.4 km/h 91% 0.0 mm
01:10 22.7 °C 21.2 °C 1016.1 hPa NE 3.2 km/h 6.4 km/h 91% 0.0 mm
01:15 22.7 °C 21.3 °C 1016.1 hPa NE 3.2 km/h 4.8 km/h 92% 0.0 mm
01:20 22.7 °C 21.3 °C 1016.1 hPa ENE 1.6 km/h 3.2 km/h 92% 0.0 mm
01:25 22.7 °C 21.1 °C 1016.2 hPa ENE 1.6 km/h 6.4 km/h 91% 0.0 mm
01:30 22.6 °C 21.1 °C 1016.2 hPa ENE 1.6 km/h 4.8 km/h 91% 0.0 mm
01:35 22.6 °C 21.2 °C 1016.1 hPa NNE 3.2 km/h 4.8 km/h 92% 0.0 mm
01:40 22.6 °C 21.1 °C 1016.0 hPa NNE 1.6 km/h   91% 0.0 mm CLR
01:45 22.5 °C 21.1 °C 1016.0 hPa Calm     92% 0.0 mm
01:50 22.4 °C 21.1 °C 1016.0 hPa Calm     92% 0.0 mm
01:55 22.4 °C 21.1 °C 1016.0 hPa Calm     92% 0.0 mm
02:00 22.4 °C 21.1 °C 1016.0 hPa Calm     92% 0.0 mm
02:05 22.4 °C 21.1 °C 1016.0 hPa Calm     92% 0.0 mm
02:10 22.4 °C 21.1 °C 1016.1 hPa Calm     92% 0.0 mm
02:15 22.4 °C 21.1 °C 1016.1 hPa Calm   3.2 km/h 92% 0.0 mm
02:20 22.4 °C 21.1 °C 1016.0 hPa Calm     92% 0.0 mm
02:25 22.4 °C 21.1 °C 1016.0 hPa Calm     92% 0.0 mm
02:30 22.4 °C 21.1 °C 1016.0 hPa Calm     92% 0.0 mm
02:35 22.4 °C 21.1 °C 1015.9 hPa Calm     92% 0.0 mm
02:40 22.3 °C 20.9 °C 1015.9 hPa Calm     92% 0.0 mm CLR
02:45 22.3 °C 20.9 °C 1015.9 hPa Calm     92% 0.0 mm CLR
02:50 22.3 °C 21.1 °C 1015.8 hPa Calm   6.4 km/h 93% 0.0 mm
02:55 22.4 °C 21.1 °C 1015.8 hPa SSE 1.6 km/h 4.8 km/h 92% 0.0 mm
03:00 22.3 °C 20.9 °C 1015.8 hPa SSW 1.6 km/h 3.2 km/h 92% 0.0 mm CLR
03:05 22.3 °C 21.0 °C 1015.7 hPa SSW 3.2 km/h 8.0 km/h 92% 0.0 mm
03:10 22.3 °C 20.9 °C 1015.7 hPa SSW 3.2 km/h 4.8 km/h 92% 0.0 mm CLR
03:15 22.2 °C 20.7 °C 1015.7 hPa SSW 3.2 km/h 8.0 km/h 91% 0.0 mm CLR
03:20 22.2 °C 20.7 °C 1015.6 hPa SSW 3.2 km/h 8.0 km/h 91% 0.0 mm CLR
03:25 22.2 °C 20.7 °C 1015.5 hPa South 3.2 km/h 4.8 km/h 91% 0.0 mm CLR
03:30 22.2 °C 20.7 °C 1015.5 hPa South 3.2 km/h 3.2 km/h 91% 0.0 mm CLR
03:35 22.2 °C 20.7 °C 1015.4 hPa South 1.6 km/h 1.6 km/h 91% 0.0 mm CLR
03:40 22.2 °C 20.7 °C 1015.4 hPa South 1.6 km/h   91% 0.0 mm CLR
03:45 22.2 °C 20.7 °C 1015.4 hPa Calm   8.0 km/h 91% 0.0 mm CLR
03:50 22.2 °C 20.5 °C 1015.5 hPa SSE 1.6 km/h 8.0 km/h 90% 0.0 mm CLR
03:55 22.2 °C 20.5 °C 1015.6 hPa SE 3.2 km/h 8.0 km/h 90% 0.0 mm CLR
04:00 22.2 °C 20.4 °C 1015.6 hPa SSE 3.2 km/h 8.0 km/h 90% 0.0 mm CLR
04:05 22.1 °C 20.4 °C 1015.6 hPa South 3.2 km/h 9.7 km/h 90% 0.0 mm CLR
04:10 22.2 °C 20.5 °C 1015.7 hPa SSW 4.8 km/h 9.7 km/h 90% 0.0 mm CLR
04:15 22.2 °C 20.5 °C 1015.7 hPa SSW 4.8 km/h 8.0 km/h 90% 0.0 mm CLR
04:20 22.3 °C 20.6 °C 1015.6 hPa SSW 3.2 km/h 8.0 km/h 90% 0.0 mm CLR
04:25 22.3 °C 20.6 °C 1015.5 hPa SW 3.2 km/h 3.2 km/h 90% 0.0 mm CLR
04:30 22.4 °C 20.7 °C 1015.5 hPa South 3.2 km/h 8.0 km/h 90% 0.0 mm CLR
04:35 22.4 °C 20.7 °C 1015.4 hPa SE 3.2 km/h 6.4 km/h 90% 0.0 mm CLR
04:40 22.4 °C 20.7 °C 1015.4 hPa SE 1.6 km/h   90% 0.0 mm CLR
04:45 22.4 °C 20.7 °C 1015.4 hPa SE 1.6 km/h   90% 0.0 mm CLR
04:50 22.4 °C 20.7 °C 1015.3 hPa SE 1.6 km/h   90% 0.0 mm CLR
04:55 22.4 °C 20.7 °C 1015.2 hPa Calm   8.0 km/h 90% 0.0 mm CLR
05:00 22.4 °C 20.7 °C 1015.2 hPa SSE 1.6 km/h 8.0 km/h 90% 0.0 mm CLR
05:05 22.3 °C 20.4 °C 1015.3 hPa South 3.2 km/h 11.3 km/h 89% 0.0 mm CLR
05:10 22.2 °C 20.3 °C 1015.4 hPa SSE 4.8 km/h 11.3 km/h 89% 0.0 mm CLR
05:15 22.1 °C 20.2 °C 1015.4 hPa SSE 8.0 km/h 9.7 km/h 89% 0.0 mm CLR
05:20 22.0 °C 20.3 °C 1015.3 hPa SSE 8.0 km/h 9.7 km/h 90% 0.0 mm CLR
05:25 22.0 °C 20.3 °C 1015.2 hPa SSE 8.0 km/h 9.7 km/h 90% 0.0 mm CLR
05:30 22.0 °C 20.3 °C 1015.2 hPa South 8.0 km/h 11.3 km/h 90% 0.0 mm CLR
05:35 22.0 °C 20.3 °C 1015.3 hPa South 6.4 km/h 7.4 km/h 90% 0.0 mm CLR
05:40 22.1 °C 20.3 °C 1015.3 hPa South 4.8 km/h 8.0 km/h 90% 0.0 mm CLR
05:45 22.1 °C 20.4 °C 1015.3 hPa SSW 4.8 km/h 8.0 km/h 90% 0.0 mm CLR
05:50 22.1 °C 20.4 °C 1015.3 hPa SW 3.2 km/h 8.0 km/h 90% 0.0 mm CLR
05:55 22.1 °C 20.4 °C 1015.4 hPa WSW 3.9 km/h 7.4 km/h 90% 0.0 mm CLR
06:00 22.0 °C 20.3 °C 1015.4 hPa WSW 3.2 km/h 8.0 km/h 90% 0.0 mm CLR
06:05 21.9 °C 20.2 °C 1015.3 hPa West 3.2 km/h 6.4 km/h 90% 0.0 mm CLR
06:10 21.9 °C 20.2 °C 1015.3 hPa West 3.2 km/h 8.0 km/h 90% 0.0 mm CLR
06:15 21.8 °C 20.1 °C 1015.3 hPa West 3.2 km/h 4.8 km/h 90% 0.0 mm CLR
06:20 21.8 °C 20.3 °C 1015.3 hPa West 3.2 km/h 4.8 km/h 91% 0.0 mm CLR
06:25 21.7 °C 20.2 °C 1015.3 hPa West 3.2 km/h 4.8 km/h 91% 0.0 mm CLR
06:30 21.7 °C 20.2 °C 1015.3 hPa West 3.2 km/h 8.0 km/h 91% 0.0 mm CLR
06:35 21.8 °C 20.3 °C 1015.4 hPa WSW 1.6 km/h 8.0 km/h 91% 0.0 mm CLR
06:40 21.8 °C 20.3 °C 1015.5 hPa SSW 3.2 km/h 8.0 km/h 91% 0.0 mm CLR
06:45 21.8 °C 20.3 °C 1015.5 hPa SW 3.2 km/h 8.0 km/h 91% 0.0 mm CLR
06:50 21.8 °C 20.3 °C 1015.5 hPa SSW 3.2 km/h 11.3 km/h 91% 0.0 mm CLR
06:55 21.8 °C 20.3 °C 1015.6 hPa SSW 3.2 km/h 9.7 km/h 91% 0.0 mm CLR
07:00 21.8 °C 20.3 °C 1015.6 hPa SSW 4.8 km/h 9.7 km/h 91% 0.0 mm CLR
07:05 21.8 °C 20.3 °C 1015.6 hPa SSW 8.0 km/h 9.7 km/h 91% 0.0 mm CLR
07:10 21.8 °C 20.3 °C 1015.6 hPa SSW 4.8 km/h 11.3 km/h 91% 0.0 mm CLR
07:15 21.8 °C 20.4 °C 1015.6 hPa SSW 4.8 km/h 9.7 km/h 92% 0.0 mm CLR
07:20 21.9 °C 20.5 °C 1015.6 hPa SW 4.8 km/h 11.3 km/h 92% 0.0 mm CLR
07:25 21.9 °C 20.6 °C 1015.6 hPa SW 4.8 km/h 8.0 km/h 92% 0.0 mm CLR
07:30 21.9 °C 20.6 °C 1015.6 hPa WSW 4.8 km/h 8.0 km/h 92% 0.0 mm CLR
07:35 21.8 °C 20.6 °C 1015.5 hPa WSW 3.2 km/h 8.0 km/h 93% 0.0 mm CLR
07:40 21.8 °C 20.6 °C 1015.4 hPa West 3.2 km/h 9.7 km/h 93% 0.0 mm CLR
07:45 21.8 °C 20.6 °C 1015.4 hPa WSW 3.2 km/h 8.0 km/h 93% 0.0 mm CLR
07:50 21.8 °C 20.6 °C 1015.5 hPa SW 4.8 km/h 9.7 km/h 93% 0.0 mm CLR
07:55 21.8 °C 20.6 °C 1015.6 hPa SSW 4.8 km/h 8.0 km/h 93% 0.0 mm CLR
08:00 21.8 °C 20.6 °C 1015.6 hPa SSW 4.8 km/h 8.0 km/h 93% 0.0 mm CLR
08:05 21.8 °C 20.6 °C 1015.5 hPa SSW 4.8 km/h 8.0 km/h 93% 0.0 mm CLR
08:10 21.9 °C 20.7 °C 1015.5 hPa SSW 4.8 km/h 8.0 km/h 93% 0.0 mm CLR
08:15 21.9 °C 20.7 °C 1015.5 hPa South 4.8 km/h 8.0 km/h 93% 0.0 mm CLR
08:20 21.8 °C 20.6 °C 1015.5 hPa SSE 4.8 km/h 8.0 km/h 93% 0.0 mm CLR
08:25 21.7 °C 20.5 °C 1015.5 hPa SE 4.8 km/h 9.7 km/h 93% 0.0 mm CLR
08:30 21.6 °C 20.2 °C 1015.5 hPa SE 4.8 km/h 11.3 km/h 92% 0.0 mm CLR
08:35 21.5 °C 20.2 °C 1015.4 hPa SSE 8.0 km/h 11.3 km/h 92% 0.0 mm CLR
08:40 21.4 °C 20.2 °C 1015.3 hPa SSE 8.0 km/h 9.7 km/h 93% 0.0 mm CLR
08:45 21.5 °C 20.3 °C 1015.3 hPa SE 6.9 km/h 7.4 km/h 93% 0.0 mm CLR
08:50 21.5 °C 20.3 °C 1015.2 hPa SSE 4.8 km/h 8.0 km/h 93% 0.0 mm CLR
08:55 21.6 °C 20.4 °C 1015.2 hPa ESE 5.0 km/h 5.6 km/h 93% 0.0 mm CLR
09:00 21.7 °C 20.5 °C 1015.2 hPa ESE 3.2 km/h 8.0 km/h 93% 0.0 mm BKN
09:05 21.7 °C 20.5 °C 1015.0 hPa ESE 3.2 km/h 8.0 km/h 93% 0.0 mm CLR
09:10 21.6 °C 20.4 °C 1014.8 hPa ESE 3.2 km/h 8.0 km/h 93% 0.0 mm CLR
09:15 21.6 °C 20.4 °C 1014.8 hPa ESE 4.8 km/h 6.4 km/h 93% 0.0 mm CLR
09:20 21.6 °C 20.4 °C 1014.8 hPa ESE 3.2 km/h 4.8 km/h 93% 0.0 mm CLR
09:25 21.7 °C 20.5 °C 1014.9 hPa ESE 3.2 km/h 8.0 km/h 93% 0.0 mm CLR
09:30 21.8 °C 20.6 °C 1014.9 hPa SSW 3.2 km/h 6.4 km/h 93% 0.0 mm CLR
09:35 21.9 °C 20.7 °C 1014.9 hPa South 3.2 km/h 11.3 km/h 93% 0.0 mm CLR
09:40 21.9 °C 20.6 °C 1014.9 hPa SE 3.2 km/h 9.7 km/h 92% 0.0 mm CLR
09:45 22.1 °C 20.7 °C 1014.9 hPa SSE 4.8 km/h 8.0 km/h 92% 0.0 mm CLR
09:50 22.2 °C 20.8 °C 1015.1 hPa SSW 4.8 km/h 8.0 km/h 92% 0.0 mm CLR
09:55 22.3 °C 20.8 °C 1015.4 hPa WSW 3.2 km/h 8.0 km/h 91% 0.0 mm CLR
10:00 22.4 °C 20.8 °C 1015.4 hPa West 3.2 km/h 8.0 km/h 91% 0.0 mm SCT
10:05 22.7 °C 21.2 °C 1015.3 hPa West 3.2 km/h 8.0 km/h 91% 0.0 mm CLR
10:10 23.0 °C 21.1 °C 1015.3 hPa ESE 3.2 km/h 8.0 km/h 89% 0.0 mm
10:15 23.3 °C 21.2 °C 1015.3 hPa SE 3.2 km/h 8.0 km/h 88% 0.0 mm
10:20 23.4 °C 20.9 °C 1015.6 hPa SSW 4.8 km/h 14.5 km/h 86% 0.0 mm CLR
10:25 23.4 °C 20.8 °C 1015.9 hPa WSW 4.8 km/h 14.5 km/h 85% 0.0 mm CLR
10:30 23.6 °C 20.9 °C 1015.9 hPa WSW 8.0 km/h 16.1 km/h 85% 0.0 mm CLR
10:35 23.7 °C 21.2 °C 1016.0 hPa WSW 9.7 km/h 16.1 km/h 86% 0.0 mm
10:40 23.7 °C 21.0 °C 1016.1 hPa SW 9.7 km/h 11.3 km/h 85% 0.0 mm
10:45 23.8 °C 21.1 °C 1016.1 hPa SW 8.0 km/h 12.9 km/h 85% 0.0 mm
10:50 23.9 °C 21.2 °C 1016.0 hPa SW 8.0 km/h 14.5 km/h 85% 0.0 mm
10:55 23.8 °C 21.1 °C 1015.9 hPa WSW 8.0 km/h 12.9 km/h 85% 0.0 mm
11:00 24.1 °C 21.4 °C 1015.9 hPa WSW 8.0 km/h 11.3 km/h 85% 0.0 mm BKN
11:05 24.3 °C 21.4 °C 1016.0 hPa WSW 8.0 km/h 12.9 km/h 84% 0.0 mm CLR
11:10 24.3 °C 21.1 °C 1016.1 hPa West 8.0 km/h 14.5 km/h 82% 0.0 mm CLR
11:15 24.2 °C 20.8 °C 1016.1 hPa WNW 8.0 km/h 12.9 km/h 81% 0.0 mm CLR
11:20 24.2 °C 20.9 °C 1016.1 hPa West 8.0 km/h 11.3 km/h 82% 0.0 mm CLR
11:25 24.3 °C 21.1 °C 1016.2 hPa WSW 8.0 km/h 12.9 km/h 82% 0.0 mm CLR
11:30 24.4 °C 21.0 °C 1016.2 hPa SW 8.0 km/h 12.9 km/h 81% 0.0 mm CLR
11:35 24.7 °C 21.0 °C 1016.2 hPa South 8.0 km/h 11.3 km/h 80% 0.0 mm CLR
11:40 25.0 °C 21.3 °C 1016.2 hPa South 8.0 km/h 12.9 km/h 80% 0.0 mm CLR
11:45 25.1 °C 21.2 °C 1016.2 hPa South 8.0 km/h 14.5 km/h 79% 0.0 mm CLR
11:50 25.2 °C 21.1 °C 1016.1 hPa South 8.0 km/h 17.7 km/h 78% 0.0 mm CLR
11:55 25.3 °C 21.2 °C 1016.1 hPa SE 8.7 km/h 14.8 km/h 78% 0.0 mm CLR
12:00 25.3 °C 21.2 °C 1016.1 hPa SE 9.7 km/h 14.5 km/h 78% 0.0 mm CLR
12:05 25.4 °C 20.8 °C 1015.8 hPa SSW 9.7 km/h 9.7 km/h 76% 0.0 mm CLR
12:10 25.4 °C 20.8 °C 1015.5 hPa WNW 8.0 km/h 11.3 km/h 76% 0.0 mm CLR
12:15 25.4 °C 20.8 °C 1015.5 hPa North 3.2 km/h 16.1 km/h 76% 0.0 mm CLR
12:20 25.3 °C 20.8 °C 1015.2 hPa NNE 4.8 km/h 11.3 km/h 76% 0.0 mm CLR
12:25 25.4 °C 20.8 °C 1015.0 hPa NNE 8.0 km/h 4.8 km/h 76% 0.0 mm CLR
12:30 25.4 °C 20.4 °C 1015.0 hPa NNE 4.8 km/h 8.0 km/h 74% 0.0 mm CLR
12:35 25.5 °C 20.7 °C 1014.9 hPa ENE 3.2 km/h 12.9 km/h 75% 0.0 mm CLR
12:40 25.5 °C 20.7 °C 1014.9 hPa East 4.8 km/h 12.9 km/h 75% 0.0 mm CLR
12:45 25.6 °C 20.6 °C 1014.9 hPa East 8.0 km/h 14.5 km/h 74% 0.0 mm CLR
12:50 25.6 °C 20.6 °C 1015.2 hPa ESE 8.0 km/h 9.7 km/h 74% 0.0 mm CLR
12:55 25.7 °C 20.5 °C 1015.5 hPa South 8.0 km/h 16.1 km/h 73% 0.0 mm CLR
13:00 25.7 °C 20.7 °C 1015.5 hPa SSW 8.0 km/h 17.7 km/h 74% 0.0 mm CLR
13:05 25.8 °C 20.6 °C 1015.8 hPa WSW 9.7 km/h 14.5 km/h 73% 0.0 mm CLR
13:10 25.9 °C 20.4 °C 1016.1 hPa WSW 9.7 km/h 14.5 km/h 72% 0.0 mm CLR
13:15 25.9 °C 20.2 °C 1016.1 hPa West 8.0 km/h 11.3 km/h 71% 0.0 mm CLR
13:20 26.0 °C 20.6 °C 1015.7 hPa WNW 8.0 km/h 11.3 km/h 72% 0.0 mm CLR
13:25 25.8 °C 20.4 °C 1015.3 hPa NNE 8.0 km/h 14.5 km/h 72% 0.0 mm CLR
13:30 25.8 °C 20.6 °C 1015.3 hPa NE 8.0 km/h 14.5 km/h 73% 0.0 mm CLR
13:35 25.8 °C 20.8 °C 1015.3 hPa NE 9.7 km/h 11.3 km/h 74% 0.0 mm CLR
13:40 25.9 °C 20.9 °C 1015.3 hPa NNE 8.0 km/h 8.0 km/h 74% 0.0 mm CLR
13:45 25.9 °C 20.9 °C 1015.3 hPa NW 3.2 km/h 9.7 km/h 74% 0.0 mm CLR
13:50 25.9 °C 20.9 °C 1015.3 hPa WNW 4.8 km/h 8.0 km/h 74% 0.0 mm CLR
13:55 26.0 °C 20.8 °C 1015.4 hPa West 4.8 km/h 11.3 km/h 73% 0.0 mm CLR
14:00 26.0 °C 20.8 °C 1015.4 hPa South 3.2 km/h 8.0 km/h 73% 0.0 mm FEW
14:05 26.1 °C 20.9 °C 1015.0 hPa ENE 3.2 km/h 12.9 km/h 73% 0.0 mm CLR
14:10 25.8 °C 20.8 °C 1014.6 hPa NNE 8.0 km/h 25.7 km/h 74% 0.0 mm CLR
14:15 25.6 °C 21.1 °C 1014.6 hPa NE 9.7 km/h 32.2 km/h 76% 0.0 mm CLR
14:20 25.6 °C 21.1 °C 1013.5 hPa NE 12.9 km/h 16.1 km/h 76% 0.0 mm CLR
14:25 25.7 °C 21.2 °C 1012.5 hPa NE 14.5 km/h 19.3 km/h 76% 0.0 mm CLR
14:30 25.8 °C 21.2 °C 1012.5 hPa ENE 12.9 km/h 14.5 km/h 76% 0.0 mm CLR
14:35 26.0 °C 21.4 °C 1012.8 hPa East 9.7 km/h 12.9 km/h 76% 0.0 mm CLR
14:40 26.1 °C 21.6 °C 1013.1 hPa NE 8.0 km/h 12.9 km/h 76% 0.0 mm CLR
14:45 26.1 °C 21.6 °C 1013.1 hPa NNE 4.8 km/h 12.9 km/h 76% 0.0 mm CLR
Murcia-Puente Tocinos, España
Compliments of Weather Underground - 2.25 mb

La estación de MeteoMurcia.com, publica sus datos en los siguientes proyectos:

Weather Underground PWS IMURCIAP2 Meteoclimatic www.awekas.at

W3Counter
Web Analytics